Location: São Paulo
(23.5507°S, 46.6334°W)
Time: 14:09:50
(UTC-03:00)

Tiros 1 - Pass Details

Date: 11 February 2026
Orbit: 618 x 649 km, 48.4° (Epoch: 11 March)

Event Time Altitude Azimuth Distance (km) Brightness Sun altitude
Rises 19:53:46 0° 0° (N) 2,904 10.3 -14.9°
Enters shadow 19:54:49 - 6° (N) 2,594 10.0 -15.1°
Reaches altitude 10° 19:57:23 10° 29° (NNE) 2,014 - -15.6°
Maximum altitude 19:59:19 12° 54° (NE) 1,863 - -16.0°
Drops below altitude 10° 20:01:16 10° 79° (E) 2,032 - -16.4°
Sets 20:04:56 0° 108° (ESE) 2,957 - -17.2°
